sat.trackr.live / text

‹ back to catalog

STARLINK-37129

NORAD 68274 · 2026-055N

PAYLOAD ACTIVE UNKNOWN

§ Identity

Operator
Country
US
Launch date
2026-03-19
Launch site
AFETR
Launch vehicle
Mass (kg)
RCS (m²)

Purposes: comms

External: N2YO · Heavens-Above · Gunter

§ Orbital elements

Epoch: 2026-05-24T18:53:39.162048Z

Period
93.85 min
Inclination
53.1594°
Eccentricity
0.0001164
Mean motion
15.34400620 rev/d
Perigee alt
461.9 km
Apogee alt
463.5 km
Semi-major
6,840.8 km
B*
6.2819e-4
RAAN
324.9595°
Arg perigee
97.7581°
Mean anomaly
262.3554°
Rev number
1,159

§ Raw data

STARLINK-371291 68274U 26055N   26144.78725882  .00020908  00000+0  62819-3 0  99962 68274  53.1594 324.9595 0001164  97.7581 262.3554 15.34400620 11590

JSON: /api/v1/satellites/68274 · /tle

For live sub-satellite position, see the globe view (requires WebGL).

§ Visibility from observer

Set your observer location to see the next 7 days of passes ≥ 10°. The values pass through the URL so the page stays shareable.

No JS? Fill the form by hand. The geolocation button needs JavaScript.